Time,TemperatureF,DewpointF,PressureIn,WindDirection,WindDirectionDegrees,WindSpeedMPH,WindSpeedGustMPH,Humidity,HourlyPrecipIn,Conditions,Clouds,dailyrainin,SoftwareType,DateUTC
2013-04-05 00:29:00,38.7,37.0,30.02,WSW,255,1.0,4.0,95,0.00,,,0.36,weatherlink.com 1.10,2013-04-05 04:29:00,
2013-04-05 00:44:00,38.7,37.0,30.03,WNW,289,0.0,4.0,95,0.00,,,0.36,weatherlink.com 1.10,2013-04-05 04:44:00,
2013-04-05 00:59:00,38.8,38.0,30.02,WNW,286,3.0,5.0,95,0.00,,,0.36,weatherlink.com 1.10,2013-04-05 04:59:00,
2013-04-05 01:14:00,38.8,37.0,30.02,WSW,255,0.0,4.0,94,0.00,,,0.36,weatherlink.com 1.10,2013-04-05 05:14:00,
2013-04-05 01:29:00,38.9,37.0,30.02,West,265,0.0,6.0,94,0.00,,,0.36,weatherlink.com 1.10,2013-04-05 05:29:00,
2013-04-05 01:59:00,38.6,37.0,30.02,WSW,243,0.0,5.0,94,0.00,,,0.36,weatherlink.com 1.10,2013-04-05 05:59:00,
2013-04-05 02:14:00,38.6,37.0,30.02,West,267,1.0,2.0,94,0.00,,,0.00,weatherlink.com 1.10,2013-04-05 06:14:00,
2013-04-05 02:29:00,38.6,37.0,30.02,South,184,0.0,3.0,94,0.00,,,0.00,weatherlink.com 1.10,2013-04-05 06:29:00,
2013-04-05 02:44:00,38.7,37.0,30.02,SSW,200,0.0,0.0,95,0.00,,,0.00,weatherlink.com 1.10,2013-04-05 06:44:00,
2013-04-05 02:59:00,38.7,37.0,30.01,SSW,200,0.0,1.0,95,0.00,,,0.00,weatherlink.com 1.10,2013-04-05 06:59:00,
2013-04-05 03:14:00,38.7,37.0,30.00,SSW,200,0.0,0.0,95,0.00,,,0.00,weatherlink.com 1.10,2013-04-05 07:14:00,
2013-04-05 03:30:00,38.6,37.0,30.00,WSW,257,0.0,0.0,94,0.00,,,0.00,weatherlink.com 1.10,2013-04-05 07:30:00,
2013-04-05 03:44:00,38.2,37.0,29.97,West,265,0.0,4.0,94,0.00,,,0.00,weatherlink.com 1.10,2013-04-05 07:44:00,
2013-04-05 04:15:00,37.4,36.0,29.96,West,275,0.0,0.0,95,0.00,,,0.00,weatherlink.com 1.10,2013-04-05 08:15:00,
2013-04-05 04:30:00,37.0,36.0,29.95,West,275,0.0,0.0,94,0.00,,,0.00,weatherlink.com 1.10,2013-04-05 08:30:00,
2013-04-05 04:45:00,36.4,35.0,29.95,West,275,0.0,0.0,94,0.00,,,0.00,weatherlink.com 1.10,2013-04-05 08:45:00,
2013-04-05 05:15:00,35.6,34.0,29.95,West,275,0.0,0.0,95,0.00,,,0.00,weatherlink.com 1.10,2013-04-05 09:15:00,
2013-04-05 05:30:00,35.3,34.0,29.96,West,275,0.0,0.0,95,0.00,,,0.00,weatherlink.com 1.10,2013-04-05 09:30:00,
2013-04-05 05:45:00,35.0,34.0,29.97,West,275,0.0,0.0,95,0.00,,,0.00,weatherlink.com 1.10,2013-04-05 09:45:00,
2013-04-05 06:00:00,34.7,34.0,29.97,West,275,0.0,1.0,96,0.00,,,0.00,weatherlink.com 1.10,2013-04-05 10:00:00,
2013-04-05 06:15:00,34.5,34.0,29.98,West,275,0.0,0.0,96,0.00,,,0.00,weatherlink.com 1.10,2013-04-05 10:15:00,
2013-04-05 06:30:00,34.3,33.0,29.99,West,275,0.0,0.0,96,0.00,,,0.00,weatherlink.com 1.10,2013-04-05 10:30:00,
2013-04-05 06:45:00,34.2,33.0,30.01,West,275,0.0,0.0,96,0.00,,,0.00,weatherlink.com 1.10,2013-04-05 10:45:00,
2013-04-05 07:00:00,34.3,33.0,30.01,West,275,0.0,0.0,96,0.00,,,0.00,weatherlink.com 1.10,2013-04-05 11:00:00,
2013-04-05 07:15:00,34.9,34.0,30.02,West,275,0.0,1.0,97,0.00,,,0.00,weatherlink.com 1.10,2013-04-05 11:15:00,
2013-04-05 07:30:00,35.9,35.0,30.03,West,275,0.0,0.0,97,0.00,,,0.00,weatherlink.com 1.10,2013-04-05 11:30:00,
2013-04-05 07:45:00,37.2,37.0,30.02,SW,218,0.0,2.0,98,0.00,,,0.00,weatherlink.com 1.10,2013-04-05 11:45:00,
2013-04-05 08:00:00,38.1,38.0,30.03,SSE,163,0.0,2.0,98,0.00,,,0.00,weatherlink.com 1.10,2013-04-05 12:00:00,
2013-04-05 08:15:00,38.7,38.0,30.03,SSE,152,0.0,1.0,98,0.00,,,0.00,weatherlink.com 1.10,2013-04-05 12:15:00,
2013-04-05 08:30:00,39.4,39.0,30.03,WSW,250,0.0,3.0,98,0.00,,,0.00,weatherlink.com 1.10,2013-04-05 12:30:00,
2013-04-05 08:45:00,39.9,39.0,30.02,WSW,258,1.0,4.0,98,0.00,,,0.00,weatherlink.com 1.10,2013-04-05 12:45:00,
2013-04-05 09:03:00,40.6,40.0,30.02,WSW,254,4.0,6.0,97,0.00,,,0.00,weatherlink.com 1.10,2013-04-05 13:03:00,
2013-04-05 09:19:00,41.4,40.0,30.03,WSW,257,0.0,7.0,94,0.00,,,0.00,weatherlink.com 1.10,2013-04-05 13:19:00,